| time (UTC) | temp C | wind direction | speed KPH | gust KPH | rain 1hr cm | rain 24hr cm | rain mn cm | humidity % | barometer mb |
| 20260505063101 | 14 | 0 | 0.0 | 8.0 | 0.00 | 0.00 | 0.00 | 83 | 1011.7 |
| 20260505061556 | 14 | 0 | 0.0 | 1.6 | 0.00 | 0.00 | 0.00 | 83 | 1011.6 |
| 20260505060055 | 14 | 0 | 0.0 | 0.0 | 0.00 | 0.00 | 0.00 | 81 | 1011.4 |
| 20260505054554 | 14 | 0 | 0.0 | 0.0 | 0.00 | 0.00 | 0.00 | 79 | 1011.2 |
| 20260505053056 | 15 | 0 | 0.0 | 0.0 | 0.00 | 0.00 | 0.00 | 77 | 1011.0 |
| 20260505051544 | 15 | 0 | 0.0 | 0.0 | 0.00 | 0.00 | 0.00 | 76 | 1010.7 |
| 20260505041553 | 17 | 0 | 0.0 | 0.0 | 0.00 | 0.00 | 0.00 | 68 | 1010.2 |
| 20260505040052 | 17 | 0 | 0.0 | 0.0 | 0.00 | 0.00 | 0.00 | 65 | 1010.0 |
| 20260505034545 | 18 | 0 | 0.0 | 0.0 | 0.00 | 0.00 | 0.00 | 62 | 1009.8 |
| 20260505033045 | 19 | 0 | 0.0 | 0.0 | 0.00 | 0.00 | 0.00 | 60 | 1009.7 |
| 20260505031553 | 20 | 0 | 0.0 | 0.0 | 0.00 | 0.00 | 0.00 | 58 | 1009.4 |
| 20260505030047 | 21 | 0 | 0.0 | 3.2 | 0.00 | 0.00 | 0.00 | 55 | 1009.4 |
| 20260505024556 | 22 | 0 | 0.0 | 0.0 | 0.00 | 0.00 | 0.00 | 53 | 1009.1 |
| 20260505023046 | 22 | 0 | 0.0 | 3.2 | 0.00 | 0.00 | 0.00 | 51 | 1009.0 |
| 20260505021548 | 23 | 0 | 0.0 | 3.2 | 0.00 | 0.00 | 0.00 | 49 | 1009.0 |
| 20260505020044 | 23 | 0 | 0.0 | 3.2 | 0.00 | 0.00 | 0.00 | 48 | 1009.1 |
| 20260505014602 | 24 | 0 | 0.0 | 8.0 | 0.00 | 0.00 | 0.00 | 47 | 1009.0 |
| 20260505013043 | 25 | 306 | 0.0 | 6.4 | 0.00 | 0.00 | 0.00 | 46 | 1009.1 |
| 20260505011556 | 25 | 0 | 0.0 | 8.0 | 0.00 | 0.00 | 0.00 | 40 | 1009.1 |
| 20260505010045 | 26 | 0 | 0.0 | 3.2 | 0.00 | 0.00 | 0.00 | 39 | 1009.2 |
| 20260505004547 | 26 | 0 | 0.0 | 6.4 | 0.00 | 0.00 | 0.00 | 39 | 1009.1 |
| 20260505003049 | 26 | 0 | 0.0 | 4.8 | 0.00 | 0.00 | 0.00 | 37 | 1009.2 |
| 20260505001542 | 26 | 0 | 0.0 | 11.3 | 0.00 | 0.00 | 0.00 | 38 | 1009.2 |
| 20260505000058 | 27 | 0 | 1.6 | 9.7 | 0.00 | 0.00 | 0.00 | 35 | 1009.2 |
| 20260504234548 | 29 | 331 | 0.0 | 6.4 | 0.00 | 0.00 | 0.00 | 38 | 1009.3 |
| 20260504233103 | 28 | 0 | 0.0 | 12.9 | 0.00 | 0.00 | 0.00 | 39 | 1009.3 |
| 20260504231544 | 30 | 0 | 0.0 | 6.4 | 0.00 | 0.00 | 0.00 | 38 | 1009.3 |
| 20260504230042 | 28 | 0 | 0.0 | 14.5 | 0.00 | 0.00 | 0.00 | 41 | 1009.3 |
| 20260504224552 | 29 | 0 | 0.0 | 11.3 | 0.00 | 0.00 | 0.00 | 43 | 1009.4 |
| 20260504223100 | 30 | 0 | 0.0 | 4.8 | 0.00 | 0.00 | 0.00 | 41 | 1009.6 |
| 20260504221544 | 29 | 0 | 0.0 | 6.4 | 0.00 | 0.00 | 0.00 | 41 | 1009.8 |
| 20260504220046 | 28 | 0 | 0.0 | 12.9 | 0.00 | 0.00 | 0.00 | 42 | 1010.0 |
| 20260504214548 | 27 | 0 | 0.0 | 14.5 | 0.00 | 0.00 | 0.00 | 44 | 1010.1 |
| 20260504213057 | 27 | 0 | 1.6 | 11.3 | 0.00 | 0.00 | 0.00 | 37 | 1010.3 |
| 20260504211546 | 27 | 0 | 0.0 | 12.9 | 0.00 | 0.00 | 0.00 | 38 | 1010.3 |
| 20260504210056 | 26 | 143 | 0.0 | 16.1 | 0.00 | 0.00 | 0.00 | 38 | 1010.4 |
| 20260504204548 | 26 | 315 | 0.0 | 12.9 | 0.00 | 0.00 | 0.00 | 37 | 1010.4 |
| 20260504203106 | 26 | 288 | 0.0 | 11.3 | 0.00 | 0.00 | 0.00 | 39 | 1010.3 |
| 20260504201549 | 26 | 296 | 1.6 | 6.4 | 0.00 | 0.00 | 0.00 | 43 | 1010.4 |
| 20260504200047 | 26 | 297 | 0.0 | 11.3 | 0.00 | 0.00 | 0.00 | 41 | 1010.5 |
| 20260504194546 | 26 | 0 | 0.0 | 6.4 | 0.00 | 0.00 | 0.00 | 43 | 1010.3 |
| 20260504193046 | 26 | 0 | 0.0 | 4.8 | 0.00 | 0.00 | 0.00 | 43 | 1010.3 |
| 20260504191557 | 25 | 0 | 0.0 | 3.2 | 0.00 | 0.00 | 0.00 | 40 | 1010.4 |
| 20260504190050 | 25 | 310 | 0.0 | 8.0 | 0.00 | 0.00 | 0.00 | 46 | 1010.7 |
| 20260504184546 | 24 | 0 | 0.0 | 8.0 | 0.00 | 0.00 | 0.00 | 45 | 1010.8 |
| 20260504183049 | 25 | 0 | 0.0 | 6.4 | 0.00 | 0.00 | 0.00 | 45 | 1010.8 |
| 20260504181548 | 24 | 0 | 0.0 | 8.0 | 0.00 | 0.00 | 0.00 | 44 | 1010.7 |
| 20260504180046 | 23 | 0 | 0.0 | 6.4 | 0.00 | 0.00 | 0.00 | 46 | 1010.6 |
| 20260504174546 | 23 | 0 | 0.0 | 6.4 | 0.00 | 0.00 | 0.00 | 52 | 1010.6 |
| 20260504173048 | 23 | 0 | 0.0 | 4.8 | 0.00 | 0.00 | 0.00 | 54 | 1010.6 |
| 20260504171549 | 22 | 0 | 0.0 | 8.0 | 0.00 | 0.00 | 0.00 | 56 | 1010.6 |
| 20260504081546 | 11 | 0 | 0.0 | 0.0 | 0.00 | 0.00 | 0.00 | 87 | 1009.3 |